User: anonymous   Login
Location: Bothwell
(42.3833°S, 147.0000°E)
Time: 00:18:59
(UTC+10:00)
Language:

FALCONSAT 3 - Orbit

View from above orbital plane
View from above orbital plane
View from above satellite
View from above satellite

Ground track
Ground track

The orbit data is extracted from the following two-line orbital elements,

1 30776U 07006E   22274.18051644  .00065711  00000-0  72675-3 0  9992
2 30776  35.4293 283.8460 0002610 223.6310 136.4218 15.61854894866071
Epoch (UTC): 01 October 2022 04:19:56
Eccentricity: 0.0002610
inclination: 35.4293°
perigee height: 380 km
apogee height: 384 km
right ascension of ascending node: 283.8460°
argument of perigee: 223.6310°
revolutions per day: 15.61854894
mean anomaly at epoch: 136.4218°
orbit number at epoch: 86607

The dashed part of the orbit path shows where the satellite is in the earth's shadow,  

DLR